Location: Feydey
(46.3431°N, 7.0106°E)
Time: 20:32:41
(UTC+00:00)

Cosmos 1328 - Pass Details

Date: 24 October 2021
Orbit: 529 x 552 km, 82.5° (Epoch: 03 December)

Event Time Altitude Azimuth Distance (km) Brightness Sun altitude
Rises 18:55:25 0° 328° (NNW) 2,736 8.0 -25.7°
Reaches altitude 10° 18:59:27 10° 288° (WNW) 1,836 7.5 -26.4°
Maximum altitude 19:00:11 10° 278° (W) 1,807 7.4 -26.5°
Drops below altitude 10° 19:00:55 10° 267° (W) 1,833 7.4 -26.7°
Sets 19:04:56 0° 227° (SW) 2,718 7.8 -27.4°
